STARLINK-1694 (46544 NORAD) Tracking and Keplerian Element Data

This shows tracking and keplerian element data for the satellite.

Feedback or suggestion? Click here.




ElementValue
Catalog46544
NameSTARLINK-1694
Epoch Orbit440
Epoch Day303.25001157
Epoch Year2020
RAAN330.126
Inclination52.9989
Eccentricity0.0001257
Argument of Perigee64.2659
Mean Anonmoly163.5226
Mean Motion15.6283319
Decay Rate4.204E-05
L11 46544U 20070N 20303.25001157 .00004204 00000-0 51562-4 0 9994
L22 46544 52.9989 330.1260 0001257 64.2659 163.5226 15.62833190 4400

Live tracking and technical data element details for STARLINK-1694 (NORAD 46544). STARLINK-1694 can be tracked NOW for your location showing map with azimuth and elevation plus other details from your city location.

Track the satellite on the map from your city or location and see movement details for azimuth, elevation, latitude, longitude, range, height, and movement on the map or in text.







IsCatalogInMostPopularTable: catalog: 46544, numindb: 3
Update: records affected: 1



GetName: 46544 STARLINK-1694

Hit Count: updated at: Fri, 30 Oct 2020 01:20:57 GMT